Regional Weather Roundup
Issued by NWS

Home | Current Version | Previous Version | Text Only | Print | Product List | Glossary Off
Versions: 1 2 3 4 5 6 7 8 9 10 11 12 13 14 15 16 17 18 19 20 21 22 23 24 25 26 27 28 29 30 31 32 33 34 35 36 37 38 39 40 41 42 43 44 45 46 47 48 49 50

000
ASUS43 KTOP 280359
RWRKS

WEATHER ROUNDUP FOR KANSAS
NATIONAL WEATHER SERVICE GOODLAND KS
1000 PM CST SAT DEC 27 2014

NOTE:  "FAIR" INDICATES FEW OR NO CLOUDS BELOW 12,000 FEET WITH NO
SIGNIFICANT WEATHER AND/OR OBSTRUCTIONS TO VISIBILITY.

KSZ001>006-013>018-027>032-041>047-280500-
NORTHWEST KANSAS

CITY           SKY/WX    TMP DP  RH WIND       PRES   REMARKS
GOODLAND       PTCLDY    14   6  70 SW8       30.15F
HAYS           CLEAR     18   7  62 W5        30.24F
HILL CITY      CLEAR     13   9  84 W6        30.23F
RUSSELL        CLEAR     21  16  81 W5        30.24F
$$

KSZ061>065-074>080-084>089-280500-
SOUTHWEST KANSAS

CITY           SKY/WX    TMP DP  RH WIND       PRES   REMARKS
DODGE CITY     CLEAR     22  15  75 W8        30.24S
ELKHART          N/A     22  10  60 S9          N/A
GARDEN CITY    CLEAR     18  14  84 W7        30.23R
GREAT BEND     CLEAR     19  12  73 W6        30.27S
LIBERAL        CLEAR     19  10  68 SW5       30.25F
$$

KSZ066>073-081>083-090>101-280500-
SOUTHEAST KANSAS

CITY           SKY/WX    TMP DP  RH WIND       PRES   REMARKS
CHANUTE        CLEAR     24  18  77 W5        30.30S
COFFEYVILLE    CLEAR     26  19  74 NW5       30.31S
HUTCHINSON     CLEAR     17  12  80 CALM      30.29R
MEDICINE LODGE   N/A     21  16  81 N3        30.29S
NEWTON         CLEAR     21  12  68 CALM      30.29R
PARSONS        CLEAR     22  18  85 NW7       30.31S
WICHITA INTL   CLEAR     22  15  75 NW3       30.29S
WICHITA JABRA  CLEAR     22  15  75 NW6       30.29R
WINFIELD       CLEAR     25  21  85 CALM      30.31S
$$

KSZ007>012-019>026-033>040-048>060-102>105-280500-
NORTHEAST KANSAS

CITY           SKY/WX    TMP DP  RH WIND       PRES   REMARKS
CONCORDIA      CLEAR     20  15  81 SW5       30.25F
EMPORIA        CLEAR     20  16  84 W5        30.28S
LAWRENCE       CLEAR     20  17  88 CALM      30.29F
MANHATTAN      CLEAR     19  16  88 W5        30.29S
OLATHE IND     CLEAR     23  17  78 NW3       30.28S
OLATHE EXE     CLEAR     25  16  68 NW3       30.26S
SALINA         CLEAR     19  13  77 SW6       30.29F
TOPEKA BILLARD CLEAR     25  19  78 CALM      30.29S
TOPEKA FORBES  CLEAR     22  16  78 CALM      30.27S
$$



USA.gov is the U.S. government's official web portal to all federal, state and local government web resources and services.